Find GPS IIR-14(M)

NORAD ID: 28874 Int'l Des: 2005-038 Owner: AFSMC Country: US Constellation: GPS operational
MEOGNSS

現在のビュー

3D地球を読み込み中...

About GPS IIR-14(M)

GPS IIR-14(M) (NORAD 28874) is a GPS constellation satellite launched Sep 26, 2005 by AFSMC of US. It operates in MEO, GNSS orbit with a mass of 1077.00 kg.

GPS IIR-14(M)について

説明を読み込み中...

次回通過

Passes for default location (London). Set your location on the main map for personalized predictions.

高度履歴

Loading altitude history...

軌道要素

1 28874U 05038A 26195.37479356 -.00000005 00000-0 00000-0 0 9998
2 28874 54.8561 272.0791 0128202 296.4051 136.1669 2.00563728152384
Epoch: Jul 14, 2026 • Age: 13 hours

現在のステータス

高度 20527.6 km
遠地点 / 近地点 N/A
速度 3.83 km/s
衛星直下点 49.19°N, 130.61°E
打ち上げ日 Sep 26, 2005
運用期間 20.7 years
タイプ navigation

技術仕様

分類 Payload
質量 1077.00 kg
乾燥質量 910.00 kg
総質量 2032.00 kg
長さ 1.50 m
直径 1.90 m
スパン 19.30 m
形状 Box + 2 Pan
製造者 LMVF
バスタイプ Series 4000
フェーズステータス In Orbit
所有者/国 AFSMC/US

Most Searched